Location: Drummondville
(45.8830°N, 72.4830°W)
Time: 18:18:11
(UTC-05:00)

Envisat - Pass Details

Date: 14 November 2017
Orbit: 764 x 766 km, 98.2° (Epoch: 18 November)

Event Time Altitude Azimuth Distance (km) Brightness Sun altitude
Exits shadow 18:35:19 14° 12° (NNE) 2,051 5.1 -23.6°
Drops below altitude 10° 18:36:07 10° 6° (N) 2,312 5.4 -23.8°
Sets 18:38:40 0° 356° (N) 3,243 6.3 -24.2°
